Погода в Неверовском

Россия / Курганская область     54°48′24″N   66°50′03″E
темп.,
°C
ветер,
м/с
пор.,
м/с
влажн.,
%
обл.,
%
осадки,
мм/ч
давл.,
гПа
погр.,
м
17 апреля, сб
сб1723:00+4св410704 0.0 1026228
02:00+2всв410754 0.0 1026255
05:000всв37822 0.0 1027148
08:00+3вюв34770 0.0 1027264
11:00+7вюв21610 0.0 1026793
14:00+9юз22455 0.0 10241279
17:00+10з35404 0.0 10221456
20:00+8з345953 0.0 102165
18 апреля, вс
вс1823:00+5зсз366898 0.0 1020106
02:00+5з36745 0.0 101894
05:00+3з478244 0.0 1016125
08:00+6з510746 0.0 1015434
11:00+9зсз811515 0.0 10141520
14:00+4с101282100 0.1 1017828
17:00+4ссв91143100 0.1 10211742
20:000ссв811485 0.0 10251048
19 апреля, пн
пн1923:00−2св79460 0.0 10281163
02:00−4св58470 0.0 10301035
05:00−5св57465 0.0 10321062
08:00−5ссв68370 0.0 10341089
11:00−3ссв67322 0.0 10341472
14:00−1ссв563398 0.0 10341985
17:000ссв5733100 0.0 10332141
20:00−2ссв3449100 0.0 103497
20 апреля, вт
вт2023:00−4св23545 0.0 103555
02:00−4с22511 0.0 103521
05:00−4ссз23505 0.0 103682
08:00−1сз34365 0.0 1036626
11:00+2сз45305 0.0 10351417
14:00+4сз46316 0.0 10331580
17:00+6зсз68335 0.0 10311775
20:00+3зсз36535 0.0 103194
21 апреля, ср
ср2123:00+2з48635 0.0 1030138
02:00+1зсз48665 0.0 1030132
05:00+1зсз410715 0.0 1030173
08:00+5сз611590 0.0 1031415
11:00+9сз8104614 0.0 10301210
14:00+12ссз79405 0.0 10301665
17:00+12с684170 0.0 10311814
20:00+8всв476487 0.0 1033227